#timestamp,LO_Frequency,Hit,StdDev 
1675112415.5,286047000.0,N
1675112435.4,286046998.8,N
1675112455.2,286047001.1,N
1675112475.1,286047000.0,N
1675112476.0,286047000.0,N
1675112495.8,286046998.6,N
1675112515.6,286046998.7,N
1675112535.5,286046999.9,N
1675112555.3,286047004.1,N
1675112575.2,286047005.2,N
1675112595.9,286047000.2,N
1675112615.8,286047004.3,N
1675112635.6,286047004.1,N
1675112655.4,286047007.6,Y
1675112675.3,286047004.6,P
1675112695.1,286047005.8,N
1675112715.9,286047004.5,N
1675112735.7,286047007.1,Y
1675112755.5,286046998.2,P
1675112775.4,286046998.0,N
1675112795.2,286046996.4,N
1675112815.0,286046991.9,N
1675112815.9,286046991.9,N
1675112835.8,286046994.2,N
1675112855.6,286046995.1,N
1675112875.5,286046993.6,N
1675112895.3,286046993.7,N
1675112915.1,286046993.7,N
1675112935.9,286046996.2,N
1675112955.7,286046999.6,N
1675112975.5,286046999.4,N
1675112995.4,286046998.2,N
1675113015.2,286046999.1,N
1675113035.1,286047000.3,N
1675113036.0,286047000.3,N
1675113055.8,286046997.0,N
1675113075.6,286046995.7,N
1675113095.5,286046995.2,N
1675113115.3,286046998.0,N
1675113135.1,286046997.4,N
1675113155.9,286046999.5,N
1675113175.7,286046999.1,N
1675113195.6,286046995.0,N
1675113215.4,286046996.3,N
1675113265.3,286046997.3,E
1675113275.2,286047001.1,N
1675113295.0,286046998.5,P
1675113295.9,286046998.5,N
1675113315.8,286046997.6,N
1675113335.6,286046996.6,N
1675113355.4,286046995.3,Y
1675113375.3,286046998.1,P
1675113395.1,286046997.0,P
1675113415.9,286046997.4,P
1675113435.7,286047000.0,N
1675113455.5,286047002.7,N
1675113475.4,286046999.6,N
1675113495.2,286047000.4,N
1675113515.0,286047002.1,N
1675113515.9,286047002.1,N
1675113535.8,286047004.4,N
1675113555.6,286047001.6,N
1675113575.5,286047000.9,N
1675113595.3,286047000.7,N
1675113615.1,286047001.1,N
1675113635.9,286047000.6,N
1675113655.7,286046998.7,N
1675113675.6,286046997.2,N
1675113695.4,286046999.0,N
1675113715.2,286046999.0,N
1675113735.1,286046997.6,N
1675113736.0,286046997.6,N
1675113755.8,286046997.7,N
1675113775.6,286046999.4,N
1675113795.5,286047001.0,N
1675113815.3,286047001.8,N
1675113835.2,286047004.1,N
1675113855.9,286047000.1,N
1675113875.7,286046998.5,N
1675113895.6,286046998.8,N
1675113915.4,286047000.4,N
1675113935.2,286046998.3,N
1675113955.1,286046997.2,N
1675113956.0,286046997.2,N
1675113975.8,286047000.9,N
1675113995.7,286046999.7,N
1675114015.5,286047004.4,N
1675114035.3,286047003.7,N
1675114055.2,286047005.8,N
1675114075.0,286047005.2,N
1675114075.9,286047005.2,N
1675114095.8,286047005.1,N
1675114115.6,286047003.4,N
1675114135.4,286047001.6,N
1675114155.3,286047002.0,N
1675114175.1,286047003.2,N
1675114195.8,286047003.5,N
1675114215.7,286047003.8,N
1675114235.5,286047000.7,N
1675114255.4,286046998.6,N
1675114275.2,286047002.2,N
1675114295.0,286046998.2,N
1675114295.9,286046998.2,N
1675114315.8,286046998.6,N
1675114335.6,286046999.8,N
1675114355.5,286047002.3,N
1675114375.3,286047001.1,N
1675114395.1,286046999.5,N
1675114415.9,286047004.0,N
1675114435.7,286047002.0,N
1675114455.5,286047000.4,N
1675114475.4,286047003.9,N
1675114495.2,286047005.6,N
1675114515.0,286047004.8,N
1675114516.0,286047004.8,N
1675114535.8,286047001.3,N
1675114555.6,286047000.6,N
1675114575.5,286046998.6,N
1675114595.3,286047004.4,N
1675114615.2,286047000.5,N
1675114635.9,286047000.2,N
1675114655.7,286047000.4,N
1675114675.6,286047000.7,N
1675114695.4,286046998.9,N
1675114715.3,286046998.5,N
1675114735.1,286046996.9,N
1675114755.8,286046997.8,N
1675114775.7,286046998.4,N
1675114795.5,286047002.8,N
1675114815.4,286047004.2,N
1675114835.2,286047004.6,N
1675114855.0,286047005.7,N
1675114855.9,286047005.7,N
1675114875.8,286047002.4,N
1675114895.6,286047005.1,N
1675114915.5,286047005.4,N
1675114935.3,286047003.0,N
1675114955.1,286047003.1,N
1675114975.9,286047006.0,N
1675114995.7,286047003.9,N
1675115015.5,286046999.9,N
1675115035.4,286047001.5,N
1675115055.2,286047004.0,N
1675115075.1,286046999.8,N
1675115076.0,286046999.8,N
1675115095.8,286047001.9,N
1675115115.6,286047000.6,N
1675115135.5,286047000.3,N
1675115155.3,286047002.8,N
1675115175.2,286047005.4,N
1675115195.9,286047003.8,N
1675115215.7,286047003.0,N
1675115235.6,286047001.8,N
1675115255.4,286047003.5,N
1675115275.2,286047002.4,N
1675115295.1,286047002.1,N
1675115296.0,286047002.1,N
1675115315.8,286047001.3,N
1675115335.7,286047003.4,N
1675115355.5,286047007.1,Y
1675115375.3,286046999.8,P
1675115395.2,286047001.2,N
1675115415.0,286047000.0,N
1675115415.9,286047000.0,N
1675115435.7,286047000.1,N
1675115455.6,286046997.2,N
1675115475.4,286046996.9,N
1675115495.3,286046997.7,N
1675115515.1,286046997.7,N
1675115516.0,286046997.7,N
1675115535.8,286046996.6,N
1675115555.7,286046996.8,N
1675115575.5,286046997.1,N
1675115595.3,286047001.1,N
1675115615.2,286047000.0,N
1675115635.0,286047000.7,N
1675115635.9,286047000.7,N
1675115655.8,286047000.5,N
1675115675.6,286046998.5,N
1675115695.4,286047002.6,N
1675115715.3,286046999.9,N
1675115735.1,286046998.8,N
1675115755.9,286046997.1,N
1675115775.7,286046995.2,N
1675115795.5,286046998.0,N
1675115815.4,286046997.8,N
1675115835.2,286047000.8,N
1675115855.0,286047002.0,N
1675115855.9,286047002.0,N
1675115875.8,286046998.9,N
1675115895.6,286046999.3,N
1675115915.5,286046997.7,N
1675115935.3,286046997.4,N
1675115955.1,286047000.4,N
1675115975.9,286047002.2,N
1675115995.7,286047002.0,N
